User: anonymous   Login
Location: Spruce Knob
(38.6995°N, 79.5330°W)
Time: 11:35:00
(UTC-04:00)
Language:

BUGSAT 1 - Orbit

View from above orbital plane
View from above orbital plane
View from above satellite
View from above satellite

Ground track
Ground track

The orbit data is extracted from the following two-line orbital elements,

1 40014U 14033E   24206.92124118  .00008086  00000-0  57310-3 0  9993
2 40014  98.1233 250.4362 0034935  10.2298 349.9629 15.04585375551315
Epoch (UTC): 24 July 2024 22:06:35
Eccentricity: 0.0034935
inclination: 98.1233°
perigee height: 528 km
apogee height: 577 km
right ascension of ascending node: 250.4362°
argument of perigee: 10.2298°
revolutions per day: 15.04585375
mean anomaly at epoch: 349.9629°
orbit number at epoch: 55131

The dashed part of the orbit path shows where the satellite is in the earth's shadow,  

DLR